Weather History for Telfer, WE

Change the Weather History Date:

Wednesday, January 30, 2013

  Actual Average Record
Temperature  
Mean Temperature 90 °F -  
Max Temperature 105 °F - - ()
Min Temperature 74 °F - - ()
Cooling Degree Days 24    
Growing Degree Days 40 (Base 50)    
Moisture  
Dew Point 40 °F    
Average Humidity 15    
Maximum Humidity 29    
Minimum Humidity 5    
Precipitation  
Precipitation 0.00 in - - ()
Sea Level Pressure  
Sea Level Pressure 29.84 in    
Wind  
Wind Speed 12 mph ()    
Max Wind Speed 20 mph    
Max Gust Speed -    
T = Trace of Precipitation, MM = Missing Value Source: Averaged Metar Reports

Daily Weather History Graph

Daily Weather History Graph

Search for Another Location

Airport:

Trip Planner

Search our weather history database for the weather conditions in past years. The results will help you decide how hot, cold, wet, or windy it might be!

Date:

Astronomy

Jan. 30, 2013 Rise Set
Actual Time 5:31 AM WST 6:37 PM WST
Civil Twilight 5:07 AM WST 7:00 PM WST
Nautical Twilight 4:39 AM WST 7:28 PM WST
Astronomical Twilight 4:10 AM WST 7:57 PM WST
Moon 8:28 PM WST (1/30) 8:00 AM WST (1/30)
Length of Visible Light 13h 53m
Length of Day
13h 05m
Waning Gibbous, 91% of the Moon is Illuminated
Jan 30
Waning Gibbous
Feb 3
Last Quarter
Feb 10
New
Feb 18
First Quarter
Feb 26
Full

Hourly Weather History & Observations

Time (WST) Temp. Dew Point Humidity Pressure Visibility Wind Dir Wind Speed Gust Speed Precip Events Conditions
12:00 AM 84 °F 44 °F 15% 29.80 in - SSE 12.7 mph - -  
12:00 AM 84.2 °F 44.6 °F 25% 29.86 in - SSE 12.7 mph - N/A   Unknown
1:00 AM 82.4 °F 42.8 °F 25% 29.86 in - SSE 13.8 mph - N/A   Unknown
2:00 AM 81 °F 43 °F 16% 29.79 in - SSE 16.1 mph - -  
2:00 AM 80.6 °F 42.8 °F 26% 29.86 in - SSE 16.1 mph - N/A   Unknown
3:00 AM 80 °F 41 °F 15% 29.79 in - SSE 15.0 mph - -  
3:00 AM 80.6 °F 41.0 °F 24% 29.86 in - SSE 15.0 mph - N/A   Unknown
4:00 AM 77.0 °F 41.0 °F 28% 29.86 in - SSE 12.7 mph - N/A   Unknown
5:00 AM 75 °F 40 °F 18% 29.82 in - SSE 11.5 mph - -  
5:00 AM 75.2 °F 41.0 °F 29% 29.89 in - SSE 11.5 mph - N/A   Unknown
6:00 AM 75 °F 40 °F 18% 29.84 in - SSE 11.5 mph - -  
6:00 AM 75.2 °F 39.2 °F 27% 29.92 in - SSE 11.5 mph - N/A   Unknown
7:00 AM 82.4 °F 39.2 °F 21% 29.92 in - SE 16.1 mph - N/A   Unknown
8:00 AM 87 °F 38 °F 10% 29.87 in - SE 18.4 mph - -  
8:00 AM 87.8 °F 39.2 °F 18% 29.92 in - SE 18.4 mph - N/A   Unknown
9:00 AM 90 °F 38 °F 9% 29.87 in - ESE 19.6 mph - -  
9:00 AM 91.4 °F 39.2 °F 16% 29.92 in - ESE 19.6 mph - N/A   Unknown
10:00 AM 95.0 °F 39.2 °F 14% 29.92 in - East 17.3 mph - N/A   Unknown
11:00 AM 99 °F 40 °F 7% 29.84 in - East 15.0 mph - -  
11:00 AM 98.6 °F 39.2 °F 13% 29.89 in - East 15.0 mph - N/A   Unknown
12:00 PM 100 °F 40 °F 7% 29.82 in - East 12.7 mph - -  
12:00 PM 100.4 °F 41.0 °F 13% 29.89 in - East 12.7 mph - N/A   Unknown
1:00 PM 102.2 °F 39.2 °F 11% 29.86 in - NNE 9.2 mph - N/A   Unknown
2:00 PM 103 °F 38 °F 5% 29.77 in - ENE 8.1 mph - -  
2:00 PM 102.2 °F 37.4 °F 11% 29.83 in - ENE 8.1 mph - N/A   Unknown
3:00 PM 102 °F 35 °F 5% 29.75 in - East 5.8 mph - -  
3:00 PM 102.2 °F 35.6 °F 10% 29.83 in - East 5.8 mph - N/A   Unknown
4:00 PM 102.2 °F 35.6 °F 10% 29.80 in - SSE 11.5 mph - N/A   Unknown
5:00 PM 102 °F 38 °F 5% 29.74 in - South 12.7 mph - -  
5:00 PM 102.2 °F 37.4 °F 11% 29.80 in - South 12.7 mph - N/A   Unknown
6:00 PM 100 °F 39 °F 6% 29.75 in - SSE 11.5 mph - -  
6:00 PM 100.4 °F 39.2 °F 12% 29.83 in - SSE 11.5 mph - N/A   Unknown
7:00 PM 96.8 °F 39.2 °F 14% 29.83 in - SSE 11.5 mph - N/A   Unknown
8:00 PM 93 °F 40 °F 9% 29.80 in - South 10.4 mph - -  
8:00 PM 93.2 °F 41.0 °F 16% 29.86 in - South 10.4 mph - N/A   Unknown
9:00 PM 92 °F 40 °F 9% 29.81 in - South 12.7 mph - -  
9:00 PM 93.2 °F 39.2 °F 15% 29.89 in - South 12.7 mph - N/A   Unknown
10:00 PM 89.6 °F 41.0 °F 18% 29.89 in - South 11.5 mph - N/A   Unknown
11:00 PM 85 °F 44 °F 14% 29.83 in - SSE 10.4 mph - -  
11:00 PM 86.0 °F 42.8 °F 22% 29.89 in - SSE 10.4 mph - N/A   Unknown